Regional Weather Roundup
Issued by NWS

Home | Current Version | Previous Version | Graphics & Text | Print | Product List | Glossary On
Versions: 1 2 3 4 5 6 7 8 9 10 11 12 13 14 15 16 17 18 19 20 21 22 23 24 25 26 27 28 29 30 31 32 33 34 35 36 37 38 39 40 41 42 43 44 45 46 47 48 49 50
000
ASUS43 KBIS 200710
RWRND

NORTH DAKOTA REGIONAL WEATHER ROUNDUP
NATIONAL WEATHER SERVICE BISMARCK ND
200 AM CDT WED SEP 20 2017

NOTE: "FAIR" INDICATES FEW OR NO CLOUDS BELOW 12,000 FEET WITH NO
SIGNIFICANT WEATHER AND/OR OBSTRUCTIONS TO VISIBILITY.


NDZ001>003-009>011-017-200800-
NORTHWEST NORTH DAKOTA

CITY           SKY/WX    TMP DP  RH WIND       PRES   REMARKS
WILLISTON      CLEAR     44  40  85 SW3       29.59R
MINOT          CLOUDY    53  48  83 SW7       29.54R
MINOT AFB      CLOUDY    51  48  89 NW6       29.52R
$$

NDZ018>021-031>035-040>046-200800-
SOUTHWEST NORTH DAKOTA

CITY           SKY/WX    TMP DP  RH WIND       PRES   REMARKS
BISMARCK       CLEAR     50  45  83 W12       29.61R
DICKINSON      CLEAR     44  40  85 W12       29.62S
GARRISON         N/A     48  42  80 W10       29.57R
HETTINGER ARPT CLEAR     42  38  85 W8        29.69R
$$

NDZ004>008-012>016-024-026-027-054-200800-
NORTHEAST NORTH DAKOTA

CITY           SKY/WX    TMP DP  RH WIND       PRES   REMARKS
GRAND FORKS    CLOUDY    63  62  97 SW7       29.43F
GRND FRKS AFB  CLOUDY    61  61 100 NW3       29.42F
DEVILS LAKE    CLOUDY    54  50  86 W18G33    29.48R
$$

NDZ022-023-025-028>030-036>039-047>053-200800-
SOUTHEAST NORTH DAKOTA

CITY           SKY/WX    TMP DP  RH WIND       PRES   REMARKS
FARGO          CLOUDY    63  62  97 S6        29.48R
JAMESTOWN      CLOUDY    56  52  86 W15G23    29.51R
$$





USA.gov is the U.S. government's official web portal to all federal, state and local government web resources and services.